Location: Barton Flats Campground
(34.1722°N, 116.8753°W)
Time: 18:13:28
(UTC+00:00)

ASTRO F (AKARI) - Pass Details

Date: 08 August 2020
Orbit: 399 x 523 km, 98.2° (Epoch: 30 September)

Event Time Altitude Azimuth Distance (km) Brightness Sun altitude
Rises 12:12:41 0° 16° (NNE) 2,323 8.7 -10.6°
Reaches altitude 10° 12:14:41 10° 20° (NNE) 1,454 7.7 -10.2°
Maximum altitude 12:17:44 62° 102° (ESE) 454 4.6 -9.7°
Drops below altitude 10° 12:20:47 10° 184° (S) 1,446 6.7 -9.1°
Sets 12:22:46 0° 187° (S) 2,308 7.7 -8.7°
